Location: La Brionne
(46.1728°N, 1.7849°E)
Time: 03:52:10
(UTC+00:00)

POLYITAN 1 - Visible Passes

Search period start: 23 March 2023 00:00
Search period end: 02 April 2023 00:00
Orbit: 579 x 595 km, 98.0° (Epoch: 22 March)

Date Brightness Start Highest point End Pass type
(mag) Time Alt. Az. Time Alt. Az. Time Alt. Az.
23 Mar ? 02:31:02 10° N 02:32:11 18° N 02:32:11 18° N visible
24 Mar ? 02:38:12 10° N 02:39:31 19° N 02:39:31 19° N visible
25 Mar ? 02:45:23 10° N 02:46:50 20° N 02:46:50 20° N visible
26 Mar ? 02:52:34 10° N 02:54:08 21° NNW 02:54:08 21° NNW visible
27 Mar ? 01:24:36 10° NE 01:24:56 12° NE 01:24:56 12° NE visible
27 Mar ? 02:59:45 10° N 03:01:25 21° NNW 03:01:25 21° NNW visible
28 Mar ? 01:31:31 10° NE 01:32:12 14° NE 01:32:12 14° NE visible
28 Mar ? 03:06:57 10° N 03:08:41 20° NNW 03:08:41 20° NNW visible
29 Mar ? 01:38:26 10° NNE 01:39:27 16° NE 01:39:27 16° NE visible
29 Mar ? 03:14:08 10° NNW 03:15:56 19° NNW 03:15:56 19° NNW visible
30 Mar ? 01:45:22 10° NNE 01:46:41 19° NE 01:46:41 19° NE visible
30 Mar ? 03:21:21 10° NNW 03:23:09 18° NW 03:23:09 18° NW visible
31 Mar ? 01:52:19 10° NNE 01:53:53 21° NE 01:53:53 21° NE visible
31 Mar ? 03:28:34 10° NNW 03:30:22 17° NW 03:30:22 17° NW visible
01 Apr ? 01:59:15 10° NNE 02:01:05 24° NNE 02:01:05 24° NNE visible
01 Apr ? 03:35:50 10° NNW 03:37:34 15° NW 03:37:34 15° NW visible
